Location: Chagrin Falls Park
(41.4139°N, 81.3865°W)
Time: 10:12:53
(UTC+00:00)

X-37B - Pass Details

Date: 05 August 2021
Orbit: 381 x 393 km, 45.0° (Epoch: 29 August)

Event Time Altitude Azimuth Distance (km) Brightness Sun altitude
Exits shadow 07:29:35 14° 81° (E) 1,180 3.5 -25.6°
Drops below altitude 10° 07:30:08 10° 77° (ENE) 1,396 3.9 -25.6°
Sets 07:32:14 0° 72° (ENE) 2,251 5.2 -25.4°
